sat.trackr.live / text

‹ back to catalog

STARLINK-6286

NORAD 56558 · 2023-065BH

PAYLOAD ACTIVE UNKNOWN

§ Identity

Operator
Country
US
Launch date
2023-05-14
Launch site
AFETR
Launch vehicle
Mass (kg)
RCS (m²)

Purposes: comms

External: N2YO · Heavens-Above · Gunter

§ Orbital elements

Epoch: 2026-05-25T01:45:20.356992Z

Period
94.27 min
Inclination
43.0027°
Eccentricity
0.0001227
Mean motion
15.27577261 rev/d
Perigee alt
482.2 km
Apogee alt
483.9 km
Semi-major
6,861.2 km
B*
1.0775e-5
RAAN
155.6405°
Arg perigee
302.6755°
Mean anomaly
57.3978°
Rev number
16,811

§ Raw data

STARLINK-62861 56558U 23065BH  26145.07315228  .00000034  00000+0  10775-4 0  99912 56558  43.0027 155.6405 0001227 302.6755  57.3978 15.27577261168112

JSON: /api/v1/satellites/56558 · /tle

For live sub-satellite position, see the globe view (requires WebGL).

§ Visibility from observer

Set your observer location to see the next 7 days of passes ≥ 10°. The values pass through the URL so the page stays shareable.

No JS? Fill the form by hand. The geolocation button needs JavaScript.